GW4285 Weather Reports


Display with metric or nautical units.
time (UTC)temp
F
wind
direction
speed
MPH
gust
MPH
rain 1hr
in
rain 24hr
in
rain mn
in
humidity
%
barometer
mb
20260830235934 76 250 3.0 8.0 0.00 0.00 0.00 48 1012.1
20260830235430 75 242 7.0 8.0 0.00 0.00 0.00 48 1012.2
20260830234925 78 224 2.0 5.0 0.00 0.00 0.00 46 1012.3
20260830234420 78 292 5.0 7.0 0.00 0.00 0.00 47 1012.4
20260830233916 75 243 4.0 8.0 0.00 0.00 0.00 49 1012.4
20260830233411 76 261 5.0 8.0 0.00 0.00 0.00 48 1012.2
20260830232907 77 255 5.0 8.0 0.00 0.00 0.00 48 1012.2
20260830232403 76 261 5.0 10.0 0.00 0.00 0.00 48 1012.2
20260830231859 75 263 5.0 11.0 0.00 0.00 0.00 50 1012.2
20260830231354 77 241 7.0 14.0 0.00 0.00 0.00 48 1012.3
20260830230853 78 258 2.0 4.0 0.00 0.00 0.00 46 1012.3
20260830230349 77 243 7.0 11.0 0.00 0.00 0.00 47 1012.3
20260830225848 78 238 3.0 7.0 0.00 0.00 0.00 48 1012.3
20260830225343 77 231 3.0 8.0 0.00 0.00 0.00 47 1012.3
20260830224838 77 256 6.0 12.0 0.00 0.00 0.00 48 1012.3
20260830224332 78 280 5.0 12.0 0.00 0.00 0.00 48 1012.4
20260830223829 78 276 3.0 11.0 0.00 0.00 0.00 48 1012.4
20260830223325 79 231 5.0 8.0 0.00 0.00 0.00 47 1012.4
20260830222824 79 254 5.0 5.0 0.00 0.00 0.00 46 1012.5
20260830222319 80 261 7.0 10.0 0.00 0.00 0.00 46 1012.4
20260830221815 79 251 3.0 8.0 0.00 0.00 0.00 48 1012.5
20260830221313 78 253 6.0 8.0 0.00 0.00 0.00 49 1012.6
20260830220812 78 321 5.0 11.0 0.00 0.00 0.00 48 1012.5
20260830220312 79 248 9.0 11.0 0.00 0.00 0.00 48 1012.6
20260830215809 78 252 6.0 8.0 0.00 0.00 0.00 48 1012.7
20260830215306 80 265 6.0 10.0 0.00 0.00 0.00 46 1012.7
20260830214800 82 249 7.0 8.0 0.00 0.00 0.00 44 1012.7
20260830214255 79 246 5.0 10.0 0.00 0.00 0.00 47 1012.8
20260830213754 80 252 5.0 8.0 0.00 0.00 0.00 46 1012.8
20260830213249 80 248 5.0 14.0 0.00 0.00 0.00 48 1013.0
20260830212745 81 255 7.0 10.0 0.00 0.00 0.00 45 1013.1
20260830212241 83 273 6.0 10.0 0.00 0.00 0.00 45 1013.2
20260830211740 82 236 1.0 5.0 0.00 0.00 0.00 43 1013.1
20260830211239 82 205 2.0 5.0 0.00 0.00 0.00 44 1013.1
20260830210736 83 149 1.0 3.0 0.00 0.00 0.00 43 1013.2
20260830210235 82 233 4.0 7.0 0.00 0.00 0.00 44 1013.3
20260830205732 80 255 3.0 10.0 0.00 0.00 0.00 47 1013.2
20260830205227 81 244 2.0 5.0 0.00 0.00 0.00 45 1013.3
20260830204722 81 269 2.0 7.0 0.00 0.00 0.00 46 1013.3
20260830204221 79 272 1.0 4.0 0.00 0.00 0.00 47 1013.3
20260830203717 79 272 3.0 5.0 0.00 0.00 0.00 47 1013.4
20260830203212 79 217 1.0 5.0 0.00 0.00 0.00 48 1013.4
20260830202711 78 241 3.0 7.0 0.00 0.00 0.00 49 1013.4
20260830202207 78 200 1.0 10.0 0.00 0.00 0.00 49 1013.4
20260830201701 77 222 1.0 5.0 0.00 0.00 0.00 51 1013.6
20260830201156 76 56 1.0 3.0 0.00 0.00 0.00 52 1013.6
20260830200652 77 251 5.0 7.0 0.00 0.00 0.00 50 1013.6
20260830200151 76 267 4.0 5.0 0.00 0.00 0.00 53 1013.7
20260830195647 75 262 3.0 5.0 0.00 0.00 0.00 54 1013.8
20260830195144 76 255 5.0 7.0 0.00 0.00 0.00 53 1013.9
20260830194643 75 20 0.0 5.0 0.00 0.00 0.00 55 1013.8
20260830194138 76 254 4.0 5.0 0.00 0.00 0.00 54 1013.9
20260830193632 75 265 1.0 4.0 0.00 0.00 0.00 55 1013.9
20260830193127 74 262 1.0 5.0 0.00 0.00 0.00 56 1013.9
20260830192623 73 264 3.0 5.0 0.00 0.00 0.00 58 1014.0
20260830192122 74 255 4.0 5.0 0.00 0.00 0.00 58 1014.0
20260830191618 72 56 1.0 5.0 0.00 0.00 0.00 59 1014.0
20260830191113 73 217 1.0 3.0 0.00 0.00 0.00 59 1014.0
20260830190609 72 261 2.0 5.0 0.00 0.00 0.00 61 1014.1
20260830190104 72 271 2.0 5.0 0.00 0.00 0.00 60 1014.1
20260830185602 70 198 0.0 4.0 0.00 0.00 0.00 63 1014.0
20260830185058 69 244 1.0 7.0 0.00 0.00 0.00 66 1014.0
20260830184557 69 256 5.0 7.0 0.00 0.00 0.00 64 1014.2
20260830184052 69 247 3.0 5.0 0.00 0.00 0.00 65 1014.3
20260830183546 69 263 5.0 5.0 0.00 0.00 0.00 64 1014.1
20260830183043 70 260 0.0 5.0 0.00 0.00 0.00 66 1014.3
20260830182538 68 214 2.0 7.0 0.00 0.00 0.00 68 1014.2
20260830182034 69 253 4.0 7.0 0.00 0.00 0.00 66 1014.2
20260830181530 69 249 4.0 4.0 0.00 0.00 0.00 66 1014.3
20260830181029 68 263 1.0 5.0 0.00 0.00 0.00 67 1014.3
20260830180523 68 259 5.0 5.0 0.00 0.00 0.00 68 1014.3
20260830180022 69 242 1.0 3.0 0.00 0.00 0.00 66 1014.4
20260830175522 69 262 1.0 3.0 0.00 0.00 0.00 65 1014.3
20260830175017 67 264 1.0 7.0 0.00 0.00 0.00 69 1014.4
20260830174513 68 269 0.0 1.0 0.00 0.00 0.00 66 1014.3
20260830174008 68 251 1.0 4.0 0.00 0.00 0.00 68 1014.2
20260830173504 66 234 0.0 4.0 0.00 0.00 0.00 70 1014.3
20260830173003 65 258 3.0 5.0 0.00 0.00 0.00 72 1014.3
20260830172500 66 264 0.0 0.0 0.00 0.00 0.00 71 1014.3
20260830171955 65 239 0.0 0.0 0.00 0.00 0.00 72 1014.2
20260830171451 66 264 0.0 0.0 0.00 0.00 0.00 71 1014.2
20260830170951 66 259 0.0 0.0 0.00 0.00 0.00 71 1014.2
20260830170445 65 235 0.0 0.0 0.00 0.00 0.00 72 1014.1
20260830165943 62 240 0.0 0.0 0.00 0.00 0.00 77 1014.2
20260830165440 62 254 0.0 0.0 0.00 0.00 0.00 78 1014.1
20260830164936 62 250 0.0 0.0 0.00 0.00 0.00 78 1014.1
20260830164432 62 263 0.0 0.0 0.00 0.00 0.00 77 1014.1
20260830163923 62 263 0.0 0.0 0.00 0.00 0.00 78 1014.1
20260830163419 63 245 0.0 0.0 0.00 0.00 0.00 76 1014.1
20260830162918 62 219 0.0 0.0 0.00 0.00 0.00 76 1014.1
20260830162414 60 245 0.0 0.0 0.00 0.00 0.00 80 1014.2
20260830161909 59 243 0.0 0.0 0.00 0.00 0.00 82 1014.1
20260830161408 61 257 0.0 0.0 0.00 0.00 0.00 79 1014.2
20260830160903 60 261 0.0 0.0 0.00 0.00 0.00 81 1014.2
20260830160359 60 262 0.0 0.0 0.00 0.00 0.00 80 1014.2
20260830155854 59 230 0.0 0.0 0.00 0.00 0.00 82 1014.1
20260830155350 59 256 0.0 0.0 0.00 0.00 0.00 83 1014.1
20260830154845 59 256 0.0 0.0 0.00 0.00 0.00 82 1014.2
20260830154341 59 308 0.0 0.0 0.00 0.00 0.00 82 1014.1
20260830153838 57 309 0.0 0.0 0.00 0.00 0.00 85 1014.1
20260830153333 57 309 0.0 0.0 0.00 0.00 0.00 85 1014.1
20260830152831 58 309 0.0 0.0 0.00 0.00 0.00 84 1014.1
20260830152326 56 309 0.0 0.0 0.00 0.00 0.00 87 1014.0
20260830151821 56 309 0.0 0.0 0.00 0.00 0.00 86 1014.0
20260830151320 57 309 0.0 0.0 0.00 0.00 0.00 85 1014.0
20260830150816 55 309 0.0 0.0 0.00 0.00 0.00 91 1014.0
20260830150315 54 309 0.0 0.0 0.00 0.00 0.00 93 1013.9
20260830145809 53 309 0.0 0.0 0.00 0.00 0.00 95 1014.0
20260830145306 52 309 0.0 0.0 0.00 0.00 0.00 95 1013.9
20260830144800 52 309 0.0 0.0 0.00 0.00 0.00 95 1013.8
20260830144255 51 309 0.0 0.0 0.00 0.00 0.00 95 1013.9
20260830143751 51 309 0.0 0.0 0.00 0.00 0.00 95 1013.9
20260830143250 52 309 0.0 0.0 0.00 0.00 0.00 95 1013.9
20260830142745 51 309 0.0 0.0 0.00 0.00 0.00 95 1013.8
20260830142240 51 310 0.0 0.0 0.00 0.00 0.00 95 1013.6
20260830141735 51 310 0.0 0.0 0.00 0.00 0.00 95 1013.6
20260830141230 51 310 0.0 0.0 0.00 0.00 0.00 95 1013.6
20260830140719 51 310 0.0 0.0 0.00 0.00 0.00 95 1013.4
20260830140214 51 310 0.0 0.0 0.00 0.00 0.00 95 1013.5
20260830135709 51 310 0.0 0.0 0.00 0.00 0.00 95 1013.4
20260830135204 51 311 0.0 0.0 0.00 0.00 0.00 95 1013.4
20260830134700 51 311 0.0 0.0 0.00 0.00 0.00 95 1013.3
20260830134155 51 311 0.0 0.0 0.00 0.00 0.00 94 1013.4
20260830133650 51 311 0.0 0.0 0.00 0.00 0.00 94 1013.2
20260830133146 51 311 0.0 0.0 0.00 0.00 0.00 94 1013.3
20260830132642 51 311 0.0 0.0 0.00 0.00 0.00 94 1013.2
20260830132137 52 311 0.0 0.0 0.00 0.00 0.00 94 1013.1
20260830131636 52 311 0.0 0.0 0.00 0.00 0.00 94 1013.1
20260830131131 52 311 0.0 0.0 0.00 0.00 0.00 94 1013.0
20260830130626 51 310 0.0 0.0 0.00 0.00 0.00 94 1013.0
20260830130125 52 310 0.0 0.0 0.00 0.00 0.00 94 1013.0
20260830125625 52 310 0.0 0.0 0.00 0.00 0.00 94 1012.8
20260830125126 52 310 0.0 0.0 0.00 0.00 0.00 94 1012.8
20260830124624 51 310 0.0 0.0 0.00 0.00 0.00 94 1012.9
20260830124119 52 310 0.0 0.0 0.00 0.00 0.00 94 1012.9
20260830123617 52 310 0.0 0.0 0.00 0.00 0.00 94 1012.8
20260830123112 52 310 0.0 0.0 0.00 0.00 0.00 94 1012.8
20260830122608 52 310 0.0 0.0 0.00 0.00 0.00 94 1012.8
20260830122104 52 310 0.0 0.0 0.00 0.00 0.00 94 1012.7
20260830121600 52 310 0.0 0.0 0.00 0.00 0.00 94 1012.8
20260830121059 52 310 0.0 0.0 0.00 0.00 0.00 94 1012.7
20260830120554 52 310 0.0 0.0 0.00 0.00 0.00 94 1012.7
20260830120051 52 310 0.0 0.0 0.00 0.00 0.00 93 1012.8
20260830115547 52 310 0.0 0.0 0.00 0.00 0.00 93 1012.7
20260830115042 52 310 0.0 0.0 0.00 0.00 0.00 93 1012.7
20260830114539 52 310 0.0 0.0 0.00 0.00 0.00 93 1012.8
20260830114038 52 310 0.0 0.0 0.00 0.00 0.00 93 1012.8
20260830113533 52 310 0.0 0.0 0.00 0.00 0.00 93 1012.9
20260830113029 52 309 0.0 0.0 0.00 0.00 0.00 93 1012.9
20260830112525 52 309 0.0 0.0 0.00 0.00 0.00 93 1012.8
20260830112020 52 310 0.0 0.0 0.00 0.00 0.00 93 1012.9
20260830111516 52 310 0.0 0.0 0.00 0.00 0.00 93 1012.9
20260830111012 52 309 0.0 0.0 0.00 0.00 0.00 93 1012.9
20260830110512 52 309 0.0 0.0 0.00 0.00 0.00 93 1012.9
20260830110007 52 309 0.0 0.0 0.00 0.00 0.00 93 1012.9
20260830105503 52 309 0.0 0.0 0.00 0.00 0.00 92 1012.9
20260830104959 52 309 0.0 0.0 0.00 0.00 0.00 92 1012.8
20260830104455 52 309 0.0 0.0 0.00 0.00 0.00 92 1012.7
20260830103950 53 309 0.0 0.0 0.00 0.00 0.00 92 1012.8
20260830103445 53 309 0.0 0.0 0.00 0.00 0.00 92 1012.8
20260830102943 53 309 0.0 0.0 0.00 0.00 0.00 92 1012.8
20260830102438 53 309 0.0 0.0 0.00 0.00 0.00 92 1012.8
20260830101934 53 309 0.0 0.0 0.00 0.00 0.00 92 1012.9
20260830101430 53 308 0.0 0.0 0.00 0.00 0.00 92 1012.8
20260830100929 53 309 0.0 0.0 0.00 0.00 0.00 92 1012.9
20260830100428 53 308 0.0 0.0 0.00 0.00 0.00 91 1012.9
20260830095927 53 306 0.0 0.0 0.00 0.00 0.00 91 1012.9
20260830095423 53 306 0.0 0.0 0.00 0.00 0.00 91 1012.9
20260830094920 53 306 0.0 0.0 0.00 0.00 0.00 91 1012.9
20260830094415 53 306 0.0 0.0 0.00 0.00 0.00 91 1012.9
20260830093911 53 306 0.0 0.0 0.00 0.00 0.00 90 1012.9
20260830093406 53 306 0.0 0.0 0.00 0.00 0.00 90 1013.0
20260830092901 53 310 0.0 0.0 0.00 0.00 0.00 90 1012.8
20260830092357 53 310 0.0 0.0 0.00 0.00 0.00 91 1012.9
20260830091854 53 309 0.0 0.0 0.00 0.00 0.00 90 1012.8
20260830091353 54 310 0.0 0.0 0.00 0.00 0.00 90 1012.9
20260830090852 54 307 0.0 0.0 0.00 0.00 0.00 90 1012.8
20260830090348 54 293 0.0 0.0 0.00 0.00 0.00 90 1012.9
20260830085848 54 294 0.0 0.0 0.00 0.00 0.00 90 1012.9
20260830085343 54 310 0.0 0.0 0.00 0.00 0.00 90 1012.9
20260830084839 54 310 0.0 0.0 0.00 0.00 0.00 90 1012.8
20260830084334 54 310 0.0 0.0 0.00 0.00 0.00 90 1012.8
20260830083829 54 310 0.0 0.0 0.00 0.00 0.00 90 1012.9
20260830083326 54 309 0.0 0.0 0.00 0.00 0.00 89 1012.9
20260830082825 54 310 0.0 0.0 0.00 0.00 0.00 89 1012.9
20260830082319 54 311 0.0 0.0 0.00 0.00 0.00 89 1013.0
20260830081814 54 307 0.0 0.0 0.00 0.00 0.00 89 1013.1
20260830081308 54 307 0.0 0.0 0.00 0.00 0.00 89 1013.1
20260830080803 54 307 0.0 0.0 0.00 0.00 0.00 89 1013.0
20260830080300 54 307 0.0 0.0 0.00 0.00 0.00 89 1013.0
20260830075758 55 318 0.0 0.0 0.00 0.00 0.00 89 1013.1
20260830075254 55 318 0.0 0.0 0.00 0.00 0.00 89 1013.0
20260830074749 55 318 0.0 0.0 0.00 0.00 0.00 89 1013.1
20260830074246 55 307 0.0 0.0 0.00 0.00 0.00 89 1013.1
20260830073741 55 308 0.0 0.0 0.00 0.00 0.00 89 1013.1
20260830073237 55 307 0.0 0.0 0.00 0.00 0.00 89 1013.1
20260830072736 55 298 0.0 0.0 0.00 0.00 0.00 89 1013.1
20260830072231 55 297 0.0 0.0 0.00 0.00 0.00 89 1013.1
20260830071726 55 287 0.0 0.0 0.00 0.00 0.00 89 1013.1
20260830071225 55 314 0.0 0.0 0.00 0.00 0.00 88 1013.1
20260830070720 55 314 0.0 0.0 0.00 0.00 0.00 88 1013.1
20260830070214 55 314 0.0 0.0 0.00 0.00 0.00 88 1013.0
20260830065713 55 314 0.0 0.0 0.00 0.00 0.00 87 1012.9
20260830065213 55 314 0.0 0.0 0.00 0.00 0.00 87 1013.2
20260830064712 55 302 0.0 0.0 0.00 0.00 0.00 87 1013.0
20260830064208 56 294 0.0 0.0 0.00 0.00 0.00 87 1013.0
20260830063708 56 296 0.0 0.0 0.00 0.00 0.00 87 1013.0
20260830063207 56 317 0.0 0.0 0.00 0.00 0.00 86 1013.0
20260830062702 56 325 0.0 0.0 0.00 0.00 0.00 86 1013.1
20260830062156 56 312 0.0 0.0 0.00 0.00 0.00 86 1013.1
20260830061651 56 312 0.0 0.0 0.00 0.00 0.00 86 1013.2
20260830061147 56 235 0.0 0.0 0.00 0.00 0.00 85 1013.1
20260830060644 56 309 0.0 0.0 0.00 0.00 0.00 85 1013.1
20260830060139 56 309 0.0 0.0 0.00 0.00 0.00 85 1013.1
20260830055639 56 310 0.0 0.0 0.00 0.00 0.00 84 1013.2
20260830055136 56 310 0.0 0.0 0.00 0.00 0.00 84 1013.2
20260830054631 57 310 0.0 0.0 0.00 0.00 0.00 84 1013.1
20260830054125 57 310 0.0 0.0 0.00 0.00 0.00 84 1013.2
20260830053616 57 52 0.0 0.0 0.00 0.00 0.00 83 1013.3
20260830053115 57 53 0.0 0.0 0.00 0.00 0.00 83 1013.3
20260830052611 57 53 0.0 0.0 0.00 0.00 0.00 82 1013.4
20260830052106 57 276 0.0 0.0 0.00 0.00 0.00 82 1013.4
20260830051600 57 276 0.0 0.0 0.00 0.00 0.00 81 1013.3
20260830051056 57 168 0.0 0.0 0.00 0.00 0.00 80 1013.3
20260830050554 58 266 0.0 0.0 0.00 0.00 0.00 79 1013.3
20260830050050 58 266 0.0 0.0 0.00 0.00 0.00 79 1013.3
20260830045549 58 180 0.0 0.0 0.00 0.00 0.00 78 1013.2
20260830045044 59 180 0.0 0.0 0.00 0.00 0.00 77 1013.3
20260830044538 59 180 0.0 0.0 0.00 0.00 0.00 77 1013.2
20260830044038 59 180 0.0 0.0 0.00 0.00 0.00 76 1013.2
20260830043534 59 180 0.0 0.0 0.00 0.00 0.00 76 1013.2
20260830043033 59 180 0.0 0.0 0.00 0.00 0.00 76 1013.3
20260830042531 60 248 0.0 0.0 0.00 0.00 0.00 75 1013.3
20260830042027 60 314 0.0 0.0 0.00 0.00 0.00 74 1013.2
20260830041526 60 303 0.0 0.0 0.00 0.00 0.00 74 1013.2
20260830041025 60 249 0.0 0.0 0.00 0.00 0.00 73 1013.1
20260830040520 60 300 0.0 1.0 0.00 0.00 0.00 73 1013.2
20260830040016 61 272 0.0 0.0 0.00 0.00 0.00 72 1013.1
20260830035514 61 271 0.0 0.0 0.00 0.00 0.00 71 1012.9
20260830035010 61 271 0.0 0.0 0.00 0.00 0.00 71 1013.0
20260830034505 62 252 0.0 0.0 0.00 0.00 0.00 70 1012.7
20260830034004 62 261 0.0 0.0 0.00 0.00 0.00 68 1012.7
20260830033500 63 280 0.0 0.0 0.00 0.00 0.00 67 1012.9
20260830032955 63 280 0.0 0.0 0.00 0.00 0.00 66 1012.6
20260830032454 64 280 0.0 0.0 0.00 0.00 0.00 65 1012.5
20260830031949 64 280 0.0 0.0 0.00 0.00 0.00 64 1012.5
20260830031445 65 280 0.0 0.0 0.00 0.00 0.00 63 1012.5
20260830030940 65 280 0.0 0.0 0.00 0.00 0.00 62 1012.6
20260830030436 66 280 0.0 0.0 0.00 0.00 0.00 61 1012.6
20260830025935 66 279 0.0 0.0 0.00 0.00 0.00 61 1012.6
20260830025430 67 258 0.0 1.0 0.00 0.00 0.00 60 1012.5
20260830024929 68 254 0.0 0.0 0.00 0.00 0.00 59 1012.6
20260830024425 68 251 0.0 0.0 0.00 0.00 0.00 57 1012.5
20260830023922 69 251 0.0 1.0 0.00 0.00 0.00 57 1012.5
20260830023420 70 250 0.0 0.0 0.00 0.00 0.00 55 1012.5
20260830022920 70 260 0.0 0.0 0.00 0.00 0.00 55 1012.5
20260830022415 71 261 0.0 0.0 0.00 0.00 0.00 54 1012.4
20260830021915 71 254 0.0 0.0 0.00 0.00 0.00 54 1012.3
20260830021410 71 256 0.0 0.0 0.00 0.00 0.00 54 1012.5
20260830020904 72 255 1.0 4.0 0.00 0.00 0.00 53 1012.4
20260830020359 72 239 1.0 3.0 0.00 0.00 0.00 53 1012.3
20260830015854 73 258 1.0 4.0 0.00 0.00 0.00 53 1012.2
20260830015349 73 277 3.0 4.0 0.00 0.00 0.00 52 1012.3
20260830014844 73 262 0.0 3.0 0.00 0.00 0.00 52 1012.3
20260830014341 73 193 1.0 5.0 0.00 0.00 0.00 53 1012.2
20260830013836 75 257 2.0 5.0 0.00 0.00 0.00 51 1012.3
20260830013331 75 250 0.0 7.0 0.00 0.00 0.00 50 1012.2
20260830012827 76 242 3.0 5.0 0.00 0.00 0.00 49 1012.4
20260830012322 78 219 3.0 4.0 0.00 0.00 0.00 48 1012.4
20260830011818 78 251 1.0 4.0 0.00 0.00 0.00 48 1012.3
20260830011318 78 253 1.0 1.0 0.00 0.00 0.00 47 1012.4
20260830010813 77 239 0.0 4.0 0.00 0.00 0.00 48 1012.5
20260830010308 77 261 1.0 5.0 0.00 0.00 0.00 48 1012.6
20260830005803 78 182 3.0 4.0 0.00 0.00 0.00 48 1012.6
20260830005300 79 284 2.0 3.0 0.00 0.00 0.00 47 1012.4
20260830004754 79 239 0.0 3.0 0.00 0.00 0.00 47 1012.4
20260830004250 77 250 0.0 3.0 0.00 0.00 0.00 49 1012.6
20260830003744 78 254 2.0 7.0 0.00 0.00 0.00 48 1012.7
20260830003239 77 246 2.0 4.0 0.00 0.00 0.00 48 1012.8
20260830002736 78 238 3.0 7.0 0.00 0.00 0.00 48 1012.7
20260830002232 77 247 0.0 4.0 0.00 0.00 0.00 48 1012.8
20260830001727 78 278 5.0 7.0 0.00 0.00 0.00 49 1012.8
20260830001222 78 254 3.0 5.0 0.00 0.00 0.00 48 1012.8
20260830000721 80 230 1.0 5.0 0.00 0.00 0.00 47 1012.9
20260830000220 79 262 0.0 3.0 0.00 0.00 0.00 47 1012.8